owner,sensor,date,latitude,longitude,vertical_datum,wind_speed,wind_to_direction,wind_speed_of_gust,qcFlag 
WAVCIS,ioos:station:WAVCIS:CSI15:1,2011-09-01T00:00:00Z,28.8332,-90.8320,10.0,7.33,69.0,,'11111222,11111222,99999999' 
WAVCIS,ioos:station:WAVCIS:CSI15:1,2011-09-01T01:00:00Z,28.8332,-90.8320,10.0,8.4,58.0,,'11111222,11111222,99999999' 
WAVCIS,ioos:station:WAVCIS:CSI15:1,2011-09-01T02:00:00Z,28.8332,-90.8320,10.0,7.29,72.0,,'11111222,11111222,99999999' 
WAVCIS,ioos:station:WAVCIS:CSI15:1,2011-09-01T03:00:00Z,28.8332,-90.8320,10.0,7.78,70.0,,'11111222,11111222,99999999' 
WAVCIS,ioos:station:WAVCIS:CSI15:1,2011-09-01T04:00:00Z,28.8332,-90.8320,10.0,7.92,67.0,,'11111222,11111222,99999999' 
WAVCIS,ioos:station:WAVCIS:CSI15:1,2011-09-01T05:00:00Z,28.8332,-90.8320,10.0,8.91,72.0,,'11111222,11111222,99999999' 
WAVCIS,ioos:station:WAVCIS:CSI15:1,2011-09-01T06:00:00Z,28.8332,-90.8320,10.0,8.65,69.0,,'11111222,11111222,99999999' 
WAVCIS,ioos:station:WAVCIS:CSI15:1,2011-09-01T07:00:00Z,28.8332,-90.8320,10.0,9.23,70.0,,'11111222,11111222,99999999' 
WAVCIS,ioos:station:WAVCIS:CSI15:1,2011-09-01T08:00:00Z,28.8332,-90.8320,10.0,9.84,65.0,,'11111222,11111222,99999999' 
WAVCIS,ioos:station:WAVCIS:CSI15:1,2011-09-01T09:00:00Z,28.8332,-90.8320,10.0,10.24,56.0,,'11111222,11111222,99999999' 
WAVCIS,ioos:station:WAVCIS:CSI15:1,2011-09-01T10:00:00Z,28.8332,-90.8320,10.0,12.71,53.0,,'11111222,11111222,99999999' 
WAVCIS,ioos:station:WAVCIS:CSI15:1,2011-09-01T11:00:00Z,28.8332,-90.8320,10.0,10.14,56.0,,'11111222,11111222,99999999' 
WAVCIS,ioos:station:WAVCIS:CSI15:1,2011-09-01T12:00:00Z,28.8332,-90.8320,10.0,11.67,53.0,,'11111222,11111222,99999999' 
WAVCIS,ioos:station:WAVCIS:CSI15:1,2011-09-01T13:00:00Z,28.8332,-90.8320,10.0,9.67,48.0,,'11111222,11111222,99999999' 
WAVCIS,ioos:station:WAVCIS:CSI15:1,2011-09-01T14:00:00Z,28.8332,-90.8320,10.0,11.25,27.0,,'11111222,11111222,99999999' 
WAVCIS,ioos:station:WAVCIS:CSI15:1,2011-09-01T15:00:00Z,28.8332,-90.8320,10.0,11.09,38.0,,'11111222,11111222,99999999' 
WAVCIS,ioos:station:WAVCIS:CSI15:1,2011-09-01T16:00:00Z,28.8332,-90.8320,10.0,9.89,57.0,,'11111222,11111222,99999999' 
WAVCIS,ioos:station:WAVCIS:CSI15:1,2011-09-01T17:00:00Z,28.8332,-90.8320,10.0,12.02,89.0,,'11111222,11111222,99999999' 
WAVCIS,ioos:station:WAVCIS:CSI15:1,2011-09-01T18:00:00Z,28.8332,-90.8320,10.0,12.37,88.0,,'11111222,11111222,99999999' 
WAVCIS,ioos:station:WAVCIS:CSI15:1,2011-09-01T19:00:00Z,28.8332,-90.8320,10.0,10.4,61.0,,'11111222,11111222,99999999' 
WAVCIS,ioos:station:WAVCIS:CSI15:1,2011-09-01T20:00:00Z,28.8332,-90.8320,10.0,13.1,69.0,,'11111222,11111222,99999999' 
WAVCIS,ioos:station:WAVCIS:CSI15:1,2011-09-01T21:00:00Z,28.8332,-90.8320,10.0,12.96,81.0,,'11111222,11111222,99999999' 
WAVCIS,ioos:station:WAVCIS:CSI15:1,2011-09-01T22:00:00Z,28.8332,-90.8320,10.0,14.85,66.0,,'11111222,11111222,99999999' 
WAVCIS,ioos:station:WAVCIS:CSI15:1,2011-09-01T23:00:00Z,28.8332,-90.8320,10.0,14.51,52.0,,'11111222,11111222,99999999' 
WAVCIS,ioos:station:WAVCIS:CSI15:1,2011-09-02T00:00:00Z,28.8332,-90.8320,10.0,15.66,69.0,,'11111222,11111222,99999999' 
WAVCIS,ioos:station:WAVCIS:CSI15:1,2011-09-02T01:00:00Z,28.8332,-90.8320,10.0,14.26,64.0,,'11111222,11111222,99999999' 
WAVCIS,ioos:station:WAVCIS:CSI15:1,2011-09-02T02:00:00Z,28.8332,-90.8320,10.0,15.35,78.0,,'11111222,11111222,99999999' 
WAVCIS,ioos:station:WAVCIS:CSI15:1,2011-09-02T03:00:00Z,28.8332,-90.8320,10.0,16.55,76.0,,'11111222,11111222,99999999' 
WAVCIS,ioos:station:WAVCIS:CSI15:1,2011-09-02T04:00:00Z,28.8332,-90.8320,10.0,15.01,76.0,,'11111222,11111222,99999999' 
WAVCIS,ioos:station:WAVCIS:CSI15:1,2011-09-02T05:00:00Z,28.8332,-90.8320,10.0,13.73,86.0,,'11111222,11111222,99999999' 
WAVCIS,ioos:station:WAVCIS:CSI15:1,2011-09-02T06:00:00Z,28.8332,-90.8320,10.0,13.64,87.0,,'11111222,11111222,99999999' 
WAVCIS,ioos:station:WAVCIS:CSI15:1,2011-09-02T07:00:00Z,28.8332,-90.8320,10.0,12.53,82.0,,'11111222,11111222,99999999' 
WAVCIS,ioos:station:WAVCIS:CSI15:1,2011-09-02T08:00:00Z,28.8332,-90.8320,10.0,12.4,96.0,,'11111222,11111222,99999999' 
WAVCIS,ioos:station:WAVCIS:CSI15:1,2011-09-02T09:00:00Z,28.8332,-90.8320,10.0,14.3,93.0,,'11111222,11111222,99999999' 
WAVCIS,ioos:station:WAVCIS:CSI15:1,2011-09-02T10:00:00Z,28.8332,-90.8320,10.0,14.88,90.0,,'11111222,11111222,99999999' 
WAVCIS,ioos:station:WAVCIS:CSI15:1,2011-09-02T11:00:00Z,28.8332,-90.8320,10.0,15.69,85.0,,'11111222,11111222,99999999' 
WAVCIS,ioos:station:WAVCIS:CSI15:1,2011-09-02T12:00:00Z,28.8332,-90.8320,10.0,15.52,72.0,,'11111222,11111222,99999999' 
WAVCIS,ioos:station:WAVCIS:CSI15:1,2011-09-02T13:00:00Z,28.8332,-90.8320,10.0,14.69,81.0,,'11111222,11111222,99999999' 
WAVCIS,ioos:station:WAVCIS:CSI15:1,2011-09-02T14:00:00Z,28.8332,-90.8320,10.0,14.35,86.0,,'11111222,11111222,99999999' 
WAVCIS,ioos:station:WAVCIS:CSI15:1,2011-09-02T15:00:00Z,28.8332,-90.8320,10.0,14.11,74.0,,'11111222,11111222,99999999' 
WAVCIS,ioos:station:WAVCIS:CSI15:1,2011-09-02T16:00:00Z,28.8332,-90.8320,10.0,17.8,84.0,,'11111222,11111222,99999999' 
WAVCIS,ioos:station:WAVCIS:CSI15:1,2011-09-02T17:00:00Z,28.8332,-90.8320,10.0,15.28,85.0,,'11111222,11111222,99999999' 
WAVCIS,ioos:station:WAVCIS:CSI15:1,2011-09-02T18:00:00Z,28.8332,-90.8320,10.0,15.31,77.0,,'11111222,11111222,99999999' 
WAVCIS,ioos:station:WAVCIS:CSI15:1,2011-09-02T19:00:00Z,28.8332,-90.8320,10.0,15.6,56.0,,'11111222,11111222,99999999' 
WAVCIS,ioos:station:WAVCIS:CSI15:1,2011-09-02T20:00:00Z,28.8332,-90.8320,10.0,16.38,66.0,,'11111222,11111222,99999999' 
WAVCIS,ioos:station:WAVCIS:CSI15:1,2011-09-02T21:00:00Z,28.8332,-90.8320,10.0,15.39,92.0,,'11111222,11111222,99999999' 
WAVCIS,ioos:station:WAVCIS:CSI15:1,2011-09-02T22:00:00Z,28.8332,-90.8320,10.0,17.29,78.0,,'11111222,11111222,99999999' 
WAVCIS,ioos:station:WAVCIS:CSI15:1,2011-09-02T23:00:00Z,28.8332,-90.8320,10.0,17.09,48.0,,'11111222,11111222,99999999' 
WAVCIS,ioos:station:WAVCIS:CSI15:1,2011-09-03T00:00:00Z,28.8332,-90.8320,10.0,14.49,50.0,,'11111222,11111222,99999999' 
WAVCIS,ioos:station:WAVCIS:CSI15:1,2011-09-03T01:00:00Z,28.8332,-90.8320,10.0,10.98,77.0,,'11111222,11111222,99999999' 
WAVCIS,ioos:station:WAVCIS:CSI15:1,2011-09-03T02:00:00Z,28.8332,-90.8320,10.0,9.48,71.0,,'11111222,11111222,99999999' 
WAVCIS,ioos:station:WAVCIS:CSI15:1,2011-09-03T03:00:00Z,28.8332,-90.8320,10.0,15.09,99.0,,'11111222,11111222,99999999' 
WAVCIS,ioos:station:WAVCIS:CSI15:1,2011-09-03T04:00:00Z,28.8332,-90.8320,10.0,15.14,122.0,,'11111222,11111222,99999999' 
WAVCIS,ioos:station:WAVCIS:CSI15:1,2011-09-03T05:00:00Z,28.8332,-90.8320,10.0,14.15,130.0,,'11111222,11111222,99999999' 
WAVCIS,ioos:station:WAVCIS:CSI15:1,2011-09-03T06:00:00Z,28.8332,-90.8320,10.0,12.2,137.0,,'11111222,11111222,99999999' 
WAVCIS,ioos:station:WAVCIS:CSI15:1,2011-09-03T07:00:00Z,28.8332,-90.8320,10.0,19.02,138.0,,'11111222,11111222,99999999' 
WAVCIS,ioos:station:WAVCIS:CSI15:1,2011-09-03T08:00:00Z,28.8332,-90.8320,10.0,18.09,140.0,,'11111222,11111222,99999999' 
WAVCIS,ioos:station:WAVCIS:CSI15:1,2011-09-03T09:00:00Z,28.8332,-90.8320,10.0,16.34,143.0,,'11111222,11111222,99999999' 
WAVCIS,ioos:station:WAVCIS:CSI15:1,2011-09-03T10:00:00Z,28.8332,-90.8320,10.0,13.95,135.0,,'11111222,11111222,99999999' 
WAVCIS,ioos:station:WAVCIS:CSI15:1,2011-09-03T11:00:00Z,28.8332,-90.8320,10.0,13.14,141.0,,'11111222,11111222,99999999' 
WAVCIS,ioos:station:WAVCIS:CSI15:1,2011-09-03T12:00:00Z,28.8332,-90.8320,10.0,14.33,153.0,,'11111222,11111222,99999999' 
WAVCIS,ioos:station:WAVCIS:CSI15:1,2011-09-03T13:00:00Z,28.8332,-90.8320,10.0,15.25,152.0,,'11111222,11111222,99999999' 
WAVCIS,ioos:station:WAVCIS:CSI15:1,2011-09-03T14:00:00Z,28.8332,-90.8320,10.0,14.87,171.0,,'11111222,11111222,99999999' 
WAVCIS,ioos:station:WAVCIS:CSI15:1,2011-09-03T15:00:00Z,28.8332,-90.8320,10.0,12.68,167.0,,'11111222,11111222,99999999' 
WAVCIS,ioos:station:WAVCIS:CSI15:1,2011-09-03T16:00:00Z,28.8332,-90.8320,10.0,12.72,170.0,,'11111222,11111222,99999999' 
WAVCIS,ioos:station:WAVCIS:CSI15:1,2011-09-03T17:00:00Z,28.8332,-90.8320,10.0,13.29,176.0,,'11111222,11111222,99999999' 
WAVCIS,ioos:station:WAVCIS:CSI15:1,2011-09-03T18:00:00Z,28.8332,-90.8320,10.0,13.2,165.0,,'11111222,11111222,99999999' 
WAVCIS,ioos:station:WAVCIS:CSI15:1,2011-09-03T19:00:00Z,28.8332,-90.8320,10.0,12.64,159.0,,'11111222,11111222,99999999' 
WAVCIS,ioos:station:WAVCIS:CSI15:1,2011-09-03T20:00:00Z,28.8332,-90.8320,10.0,12.17,153.0,,'11111222,11111222,99999999' 
WAVCIS,ioos:station:WAVCIS:CSI15:1,2011-09-03T21:00:00Z,28.8332,-90.8320,10.0,14.94,174.0,,'11111222,11111222,99999999' 
WAVCIS,ioos:station:WAVCIS:CSI15:1,2011-09-03T22:00:00Z,28.8332,-90.8320,10.0,15.04,159.0,,'11111222,11111222,99999999' 
WAVCIS,ioos:station:WAVCIS:CSI15:1,2011-09-03T23:00:00Z,28.8332,-90.8320,10.0,13.53,177.0,,'11111222,11111222,99999999' 
WAVCIS,ioos:station:WAVCIS:CSI15:1,2011-09-04T00:00:00Z,28.8332,-90.8320,10.0,16.85,179.0,,'11111222,11111222,99999999' 
WAVCIS,ioos:station:WAVCIS:CSI15:1,2011-09-04T01:00:00Z,28.8332,-90.8320,10.0,16.33,187.0,,'11111222,11111222,99999999' 
WAVCIS,ioos:station:WAVCIS:CSI15:1,2011-09-04T02:00:00Z,28.8332,-90.8320,10.0,16.9,181.0,,'11111222,11111222,99999999' 
WAVCIS,ioos:station:WAVCIS:CSI15:1,2011-09-04T03:00:00Z,28.8332,-90.8320,10.0,18.29,173.0,,'11111222,11111222,99999999' 
WAVCIS,ioos:station:WAVCIS:CSI15:1,2011-09-04T04:00:00Z,28.8332,-90.8320,10.0,19.8,184.0,,'11111222,11111222,99999999' 
WAVCIS,ioos:station:WAVCIS:CSI15:1,2011-09-04T05:00:00Z,28.8332,-90.8320,10.0,21.62,179.0,,'11111222,11111222,99999999' 
WAVCIS,ioos:station:WAVCIS:CSI15:1,2011-09-04T06:00:00Z,28.8332,-90.8320,10.0,21.57,188.0,,'11111222,11111222,99999999' 
WAVCIS,ioos:station:WAVCIS:CSI15:1,2011-09-04T07:00:00Z,28.8332,-90.8320,10.0,21.21,171.0,,'11111222,11111222,99999999' 
WAVCIS,ioos:station:WAVCIS:CSI15:1,2011-09-04T08:00:00Z,28.8332,-90.8320,10.0,19.95,197.0,,'11111222,11111222,99999999' 
WAVCIS,ioos:station:WAVCIS:CSI15:1,2011-09-04T09:00:00Z,28.8332,-90.8320,10.0,18.31,157.0,,'11111222,11111222,99999999' 
WAVCIS,ioos:station:WAVCIS:CSI15:1,2011-09-04T10:00:00Z,28.8332,-90.8320,10.0,22.98,182.0,,'11111222,11111222,99999999' 
WAVCIS,ioos:station:WAVCIS:CSI15:1,2011-09-04T11:00:00Z,28.8332,-90.8320,10.0,18.44,184.0,,'11111222,11111222,99999999' 
WAVCIS,ioos:station:WAVCIS:CSI15:1,2011-09-04T12:00:00Z,28.8332,-90.8320,10.0,24.18,192.0,,'11111222,11111222,99999999' 
WAVCIS,ioos:station:WAVCIS:CSI15:1,2011-09-04T13:00:00Z,28.8332,-90.8320,10.0,22.6,196.0,,'11111222,11111222,99999999' 
WAVCIS,ioos:station:WAVCIS:CSI15:1,2011-09-04T14:00:00Z,28.8332,-90.8320,10.0,21.05,189.0,,'11111222,11111222,99999999' 
WAVCIS,ioos:station:WAVCIS:CSI15:1,2011-09-04T15:00:00Z,28.8332,-90.8320,10.0,21.54,189.0,,'11111222,11111222,99999999' 
WAVCIS,ioos:station:WAVCIS:CSI15:1,2011-09-04T16:00:00Z,28.8332,-90.8320,10.0,20.62,185.0,,'11111222,11111222,99999999' 
WAVCIS,ioos:station:WAVCIS:CSI15:1,2011-09-04T17:00:00Z,28.8332,-90.8320,10.0,21.38,196.0,,'11111222,11111222,99999999' 
WAVCIS,ioos:station:WAVCIS:CSI15:1,2011-09-04T18:00:00Z,28.8332,-90.8320,10.0,20.02,194.0,,'11111222,11111222,99999999' 
WAVCIS,ioos:station:WAVCIS:CSI15:1,2011-09-04T19:00:00Z,28.8332,-90.8320,10.0,16.52,192.0,,'11111222,11111222,99999999' 
WAVCIS,ioos:station:WAVCIS:CSI15:1,2011-09-04T20:00:00Z,28.8332,-90.8320,10.0,17.49,198.0,,'11111222,11111222,99999999' 
WAVCIS,ioos:station:WAVCIS:CSI15:1,2011-09-04T21:00:00Z,28.8332,-90.8320,10.0,16.24,205.0,,'11111222,11111222,99999999' 
WAVCIS,ioos:station:WAVCIS:CSI15:1,2011-09-04T22:00:00Z,28.8332,-90.8320,10.0,16.61,201.0,,'11111222,11111222,99999999' 
WAVCIS,ioos:station:WAVCIS:CSI15:1,2011-09-04T23:00:00Z,28.8332,-90.8320,10.0,14.06,204.0,,'11111222,11111222,99999999' 
WAVCIS,ioos:station:WAVCIS:CSI15:1,2011-09-05T00:00:00Z,28.8332,-90.8320,10.0,15.39,193.0,,'11111222,11111222,99999999' 
WAVCIS,ioos:station:WAVCIS:CSI15:1,2011-09-05T01:00:00Z,28.8332,-90.8320,10.0,14.33,191.0,,'11111222,11111222,99999999' 
WAVCIS,ioos:station:WAVCIS:CSI15:1,2011-09-05T02:00:00Z,28.8332,-90.8320,10.0,14.45,184.0,,'11111222,11111222,99999999' 
WAVCIS,ioos:station:WAVCIS:CSI15:1,2011-09-05T03:00:00Z,28.8332,-90.8320,10.0,14.71,182.0,,'11111222,11111222,99999999' 
WAVCIS,ioos:station:WAVCIS:CSI15:1,2011-09-05T04:00:00Z,28.8332,-90.8320,10.0,13.8,205.0,,'11111222,11111222,99999999' 
WAVCIS,ioos:station:WAVCIS:CSI15:1,2011-09-05T05:00:00Z,28.8332,-90.8320,10.0,12.18,204.0,,'11111222,11111222,99999999' 
WAVCIS,ioos:station:WAVCIS:CSI15:1,2011-09-05T06:00:00Z,28.8332,-90.8320,10.0,13.1,191.0,,'11111222,11111222,99999999' 
WAVCIS,ioos:station:WAVCIS:CSI15:1,2011-09-05T07:00:00Z,28.8332,-90.8320,10.0,14.02,207.0,,'11111222,11111222,99999999' 
WAVCIS,ioos:station:WAVCIS:CSI15:1,2011-09-05T08:00:00Z,28.8332,-90.8320,10.0,13.7,204.0,,'11111222,11111222,99999999' 
WAVCIS,ioos:station:WAVCIS:CSI15:1,2011-09-05T09:00:00Z,28.8332,-90.8320,10.0,14.76,213.0,,'11111222,11111222,99999999' 
WAVCIS,ioos:station:WAVCIS:CSI15:1,2011-09-05T10:00:00Z,28.8332,-90.8320,10.0,15.01,228.0,,'11111222,11111222,99999999' 
WAVCIS,ioos:station:WAVCIS:CSI15:1,2011-09-05T11:00:00Z,28.8332,-90.8320,10.0,12.69,242.0,,'11111222,11111222,99999999' 
WAVCIS,ioos:station:WAVCIS:CSI15:1,2011-09-05T12:00:00Z,28.8332,-90.8320,10.0,11.49,255.0,,'11111222,11111222,99999999' 
WAVCIS,ioos:station:WAVCIS:CSI15:1,2011-09-05T13:00:00Z,28.8332,-90.8320,10.0,15.59,298.0,,'11111222,11111222,99999999' 
WAVCIS,ioos:station:WAVCIS:CSI15:1,2011-09-05T14:00:00Z,28.8332,-90.8320,10.0,16.09,300.0,,'11111222,11111222,99999999' 
WAVCIS,ioos:station:WAVCIS:CSI15:1,2011-09-05T15:00:00Z,28.8332,-90.8320,10.0,15.39,301.0,,'11111222,11111222,99999999' 
WAVCIS,ioos:station:WAVCIS:CSI15:1,2011-09-05T16:00:00Z,28.8332,-90.8320,10.0,15.32,295.0,,'11111222,11111222,99999999' 
WAVCIS,ioos:station:WAVCIS:CSI15:1,2011-09-05T17:00:00Z,28.8332,-90.8320,10.0,15.97,294.0,,'11111222,11111222,99999999' 
WAVCIS,ioos:station:WAVCIS:CSI15:1,2011-09-05T18:00:00Z,28.8332,-90.8320,10.0,14.25,299.0,,'11111222,11111222,99999999' 
WAVCIS,ioos:station:WAVCIS:CSI15:1,2011-09-05T19:00:00Z,28.8332,-90.8320,10.0,12.19,305.0,,'11111222,11111222,99999999' 
WAVCIS,ioos:station:WAVCIS:CSI15:1,2011-09-05T20:00:00Z,28.8332,-90.8320,10.0,8.84,296.0,,'11111222,11111222,99999999' 
WAVCIS,ioos:station:WAVCIS:CSI15:1,2011-09-05T21:00:00Z,28.8332,-90.8320,10.0,10.5,315.0,,'11111222,11111222,99999999' 
WAVCIS,ioos:station:WAVCIS:CSI15:1,2011-09-05T22:00:00Z,28.8332,-90.8320,10.0,11.18,314.0,,'11111222,11111222,99999999' 
WAVCIS,ioos:station:WAVCIS:CSI15:1,2011-09-05T23:00:00Z,28.8332,-90.8320,10.0,11.39,314.0,,'11111222,11111222,99999999' 
WAVCIS,ioos:station:WAVCIS:CSI15:1,2011-09-06T00:00:00Z,28.8332,-90.8320,10.0,12.76,311.0,,'11111222,11111222,99999999' 
WAVCIS,ioos:station:WAVCIS:CSI15:1,2011-09-06T01:00:00Z,28.8332,-90.8320,10.0,13.23,321.0,,'11111222,11111222,99999999' 
WAVCIS,ioos:station:WAVCIS:CSI15:1,2011-09-06T02:00:00Z,28.8332,-90.8320,10.0,13.49,326.0,,'11111222,11111222,99999999' 
WAVCIS,ioos:station:WAVCIS:CSI15:1,2011-09-06T03:00:00Z,28.8332,-90.8320,10.0,12.41,350.0,,'11111222,11111222,99999999' 
WAVCIS,ioos:station:WAVCIS:CSI15:1,2011-09-06T04:00:00Z,28.8332,-90.8320,10.0,13.19,349.0,,'11111222,11111222,99999999' 
WAVCIS,ioos:station:WAVCIS:CSI15:1,2011-09-06T05:00:00Z,28.8332,-90.8320,10.0,11.82,349.0,,'11111222,11111222,99999999' 
WAVCIS,ioos:station:WAVCIS:CSI15:1,2011-09-06T06:00:00Z,28.8332,-90.8320,10.0,11.47,346.0,,'11111222,11111222,99999999' 
WAVCIS,ioos:station:WAVCIS:CSI15:1,2011-09-06T07:00:00Z,28.8332,-90.8320,10.0,10.63,348.0,,'11111222,11111222,99999999' 
WAVCIS,ioos:station:WAVCIS:CSI15:1,2011-09-06T08:00:00Z,28.8332,-90.8320,10.0,11.38,348.0,,'11111222,11111222,99999999' 
WAVCIS,ioos:station:WAVCIS:CSI15:1,2011-09-06T09:00:00Z,28.8332,-90.8320,10.0,9.81,341.0,,'11111222,11111222,99999999' 
WAVCIS,ioos:station:WAVCIS:CSI15:1,2011-09-06T10:00:00Z,28.8332,-90.8320,10.0,7.89,342.0,,'11111222,11111222,99999999' 
WAVCIS,ioos:station:WAVCIS:CSI15:1,2011-09-06T11:00:00Z,28.8332,-90.8320,10.0,7.85,340.0,,'11111222,11111222,99999999' 
WAVCIS,ioos:station:WAVCIS:CSI15:1,2011-09-06T12:00:00Z,28.8332,-90.8320,10.0,7.95,345.0,,'11111222,11111222,99999999' 
WAVCIS,ioos:station:WAVCIS:CSI15:1,2011-09-06T13:00:00Z,28.8332,-90.8320,10.0,8.21,342.0,,'11111222,11111222,99999999' 
WAVCIS,ioos:station:WAVCIS:CSI15:1,2011-09-06T14:00:00Z,28.8332,-90.8320,10.0,7.26,337.0,,'11111222,11111222,99999999' 
WAVCIS,ioos:station:WAVCIS:CSI15:1,2011-09-06T15:00:00Z,28.8332,-90.8320,10.0,5.793,334.0,,'11111222,11111222,99999999' 
WAVCIS,ioos:station:WAVCIS:CSI15:1,2011-09-06T16:00:00Z,28.8332,-90.8320,10.0,5.842,333.0,,'11111222,11111222,99999999' 
WAVCIS,ioos:station:WAVCIS:CSI15:1,2011-09-06T17:00:00Z,28.8332,-90.8320,10.0,5.574,332.0,,'11111222,11111222,99999999' 
WAVCIS,ioos:station:WAVCIS:CSI15:1,2011-09-06T18:00:00Z,28.8332,-90.8320,10.0,5.468,339.0,,'11111222,11111222,99999999' 
WAVCIS,ioos:station:WAVCIS:CSI15:1,2011-09-06T19:00:00Z,28.8332,-90.8320,10.0,5.273,336.0,,'11111222,11111222,99999999' 
WAVCIS,ioos:station:WAVCIS:CSI15:1,2011-09-06T20:00:00Z,28.8332,-90.8320,10.0,4.942,325.0,,'11111222,11111222,99999999' 
WAVCIS,ioos:station:WAVCIS:CSI15:1,2011-09-06T21:00:00Z,28.8332,-90.8320,10.0,3.749,324.0,,'11111222,11111222,99999999' 
WAVCIS,ioos:station:WAVCIS:CSI15:1,2011-09-06T22:00:00Z,28.8332,-90.8320,10.0,2.272,14.0,,'11111222,11111222,99999999' 
WAVCIS,ioos:station:WAVCIS:CSI15:1,2011-09-06T23:00:00Z,28.8332,-90.8320,10.0,2.473,1.0,,'11111222,11111222,99999999' 
WAVCIS,ioos:station:WAVCIS:CSI15:1,2011-09-07T00:00:00Z,28.8332,-90.8320,10.0,3.491,3.0,,'11111222,11111222,99999999' 
WAVCIS,ioos:station:WAVCIS:CSI15:1,2011-09-07T01:00:00Z,28.8332,-90.8320,10.0,5.486,353.0,,'11111222,11111222,99999999' 
WAVCIS,ioos:station:WAVCIS:CSI15:1,2011-09-07T02:00:00Z,28.8332,-90.8320,10.0,5.94,349.0,,'11111222,11111222,99999999' 
WAVCIS,ioos:station:WAVCIS:CSI15:1,2011-09-07T03:00:00Z,28.8332,-90.8320,10.0,6.707,348.0,,'11111222,11111222,99999999' 
WAVCIS,ioos:station:WAVCIS:CSI15:1,2011-09-07T04:00:00Z,28.8332,-90.8320,10.0,7.77,338.0,,'11111222,11111222,99999999' 
WAVCIS,ioos:station:WAVCIS:CSI15:1,2011-09-07T05:00:00Z,28.8332,-90.8320,10.0,7.04,340.0,,'11111222,11111222,99999999' 
WAVCIS,ioos:station:WAVCIS:CSI15:1,2011-09-07T06:00:00Z,28.8332,-90.8320,10.0,8.71,355.0,,'11111222,11111222,99999999' 
WAVCIS,ioos:station:WAVCIS:CSI15:1,2011-09-07T07:00:00Z,28.8332,-90.8320,10.0,9.45,1.0,,'11111222,11111222,99999999' 
WAVCIS,ioos:station:WAVCIS:CSI15:1,2011-09-07T08:00:00Z,28.8332,-90.8320,10.0,8.28,359.0,,'11111222,11111222,99999999' 
WAVCIS,ioos:station:WAVCIS:CSI15:1,2011-09-07T09:00:00Z,28.8332,-90.8320,10.0,7.73,359.0,,'11111222,11111222,99999999' 
WAVCIS,ioos:station:WAVCIS:CSI15:1,2011-09-07T10:00:00Z,28.8332,-90.8320,10.0,7.3,359.0,,'11111222,11111222,99999999' 
WAVCIS,ioos:station:WAVCIS:CSI15:1,2011-09-07T11:00:00Z,28.8332,-90.8320,10.0,7.08,1.0,,'11111222,11111222,99999999' 
WAVCIS,ioos:station:WAVCIS:CSI15:1,2011-09-07T12:00:00Z,28.8332,-90.8320,10.0,7.7,3.0,,'11111222,11111222,99999999' 
WAVCIS,ioos:station:WAVCIS:CSI15:1,2011-09-07T13:00:00Z,28.8332,-90.8320,10.0,8.16,1.0,,'11111222,11111222,99999999' 
WAVCIS,ioos:station:WAVCIS:CSI15:1,2011-09-07T14:00:00Z,28.8332,-90.8320,10.0,7.52,3.0,,'11111222,11111222,99999999' 
WAVCIS,ioos:station:WAVCIS:CSI15:1,2011-09-07T15:00:00Z,28.8332,-90.8320,10.0,6.567,3.0,,'11111222,11111222,99999999' 
WAVCIS,ioos:station:WAVCIS:CSI15:1,2011-09-07T16:00:00Z,28.8332,-90.8320,10.0,6.972,5.0,,'11111222,11111222,99999999' 
WAVCIS,ioos:station:WAVCIS:CSI15:1,2011-09-07T17:00:00Z,28.8332,-90.8320,10.0,6.662,355.0,,'11111222,11111222,99999999' 
WAVCIS,ioos:station:WAVCIS:CSI15:1,2011-09-07T18:00:00Z,28.8332,-90.8320,10.0,6.399,1.0,,'11111222,11111222,99999999' 
WAVCIS,ioos:station:WAVCIS:CSI15:1,2011-09-07T19:00:00Z,28.8332,-90.8320,10.0,5.561,2.0,,'11111222,11111222,99999999' 
WAVCIS,ioos:station:WAVCIS:CSI15:1,2011-09-07T20:00:00Z,28.8332,-90.8320,10.0,5.443,6.0,,'11111222,11111222,99999999' 
WAVCIS,ioos:station:WAVCIS:CSI15:1,2011-09-07T21:00:00Z,28.8332,-90.8320,10.0,4.484,15.0,,'11111222,11111222,99999999' 
WAVCIS,ioos:station:WAVCIS:CSI15:1,2011-09-07T22:00:00Z,28.8332,-90.8320,10.0,4.913,11.0,,'11111222,11111222,99999999' 
WAVCIS,ioos:station:WAVCIS:CSI15:1,2011-09-07T23:00:00Z,28.8332,-90.8320,10.0,4.685,18.0,,'11111222,11111222,99999999' 
WAVCIS,ioos:station:WAVCIS:CSI15:1,2011-09-08T00:00:00Z,28.8332,-90.8320,10.0,5.888,18.0,,'11111222,11111222,99999999' 
WAVCIS,ioos:station:WAVCIS:CSI15:1,2011-09-08T01:00:00Z,28.8332,-90.8320,10.0,6.794,15.0,,'11111222,11111222,99999999' 
WAVCIS,ioos:station:WAVCIS:CSI15:1,2011-09-08T02:00:00Z,28.8332,-90.8320,10.0,6.696,9.0,,'11111222,11111222,99999999' 
WAVCIS,ioos:station:WAVCIS:CSI15:1,2011-09-08T03:00:00Z,28.8332,-90.8320,10.0,6.638,7.0,,'11111222,11111222,99999999' 
WAVCIS,ioos:station:WAVCIS:CSI15:1,2011-09-08T04:00:00Z,28.8332,-90.8320,10.0,5.551,6.0,,'11111222,11111222,99999999' 
WAVCIS,ioos:station:WAVCIS:CSI15:1,2011-09-08T05:00:00Z,28.8332,-90.8320,10.0,5.453,5.0,,'11111222,11111222,99999999' 
WAVCIS,ioos:station:WAVCIS:CSI15:1,2011-09-08T06:00:00Z,28.8332,-90.8320,10.0,5.645,344.0,,'11111222,11111222,99999999' 
WAVCIS,ioos:station:WAVCIS:CSI15:1,2011-09-08T07:00:00Z,28.8332,-90.8320,10.0,4.683,347.0,,'11111222,11111222,99999999' 
WAVCIS,ioos:station:WAVCIS:CSI15:1,2011-09-08T08:00:00Z,28.8332,-90.8320,10.0,4.922,9.0,,'11111222,11111222,99999999' 
WAVCIS,ioos:station:WAVCIS:CSI15:1,2011-09-08T09:00:00Z,28.8332,-90.8320,10.0,5.939,359.0,,'11111222,11111222,99999999' 
WAVCIS,ioos:station:WAVCIS:CSI15:1,2011-09-08T10:00:00Z,28.8332,-90.8320,10.0,5.848,14.0,,'11111222,11111222,99999999' 
WAVCIS,ioos:station:WAVCIS:CSI15:1,2011-09-08T11:00:00Z,28.8332,-90.8320,10.0,6.135,4.0,,'11111222,11111222,99999999' 
WAVCIS,ioos:station:WAVCIS:CSI15:1,2011-09-08T12:00:00Z,28.8332,-90.8320,10.0,5.532,11.0,,'11111222,11111222,99999999' 
WAVCIS,ioos:station:WAVCIS:CSI15:1,2011-09-08T13:00:00Z,28.8332,-90.8320,10.0,5.036,6.0,,'11111222,11111222,99999999' 
WAVCIS,ioos:station:WAVCIS:CSI15:1,2011-09-08T14:00:00Z,28.8332,-90.8320,10.0,5.165,9.0,,'11111222,11111222,99999999' 
WAVCIS,ioos:station:WAVCIS:CSI15:1,2011-09-08T15:00:00Z,28.8332,-90.8320,10.0,4.765,3.0,,'11111222,11111222,99999999' 
WAVCIS,ioos:station:WAVCIS:CSI15:1,2011-09-08T16:00:00Z,28.8332,-90.8320,10.0,5.412,354.0,,'11111222,11111222,99999999' 
WAVCIS,ioos:station:WAVCIS:CSI15:1,2011-09-08T17:00:00Z,28.8332,-90.8320,10.0,5.125,356.0,,'11111222,11111222,99999999' 
WAVCIS,ioos:station:WAVCIS:CSI15:1,2011-09-08T18:00:00Z,28.8332,-90.8320,10.0,4.456,8.0,,'11111222,11111222,99999999' 
WAVCIS,ioos:station:WAVCIS:CSI15:1,2011-09-08T19:00:00Z,28.8332,-90.8320,10.0,3.671,4.0,,'11111222,11111222,99999999' 
WAVCIS,ioos:station:WAVCIS:CSI15:1,2011-09-08T20:00:00Z,28.8332,-90.8320,10.0,3.798,3.0,,'11111222,11111222,99999999' 
WAVCIS,ioos:station:WAVCIS:CSI15:1,2011-09-08T21:00:00Z,28.8332,-90.8320,10.0,3.508,29.0,,'11111222,11111222,99999999' 
WAVCIS,ioos:station:WAVCIS:CSI15:1,2011-09-08T22:00:00Z,28.8332,-90.8320,10.0,3.644,27.0,,'11111222,11111222,99999999' 
WAVCIS,ioos:station:WAVCIS:CSI15:1,2011-09-08T23:00:00Z,28.8332,-90.8320,10.0,2.573,16.0,,'11111222,11111222,99999999' 
WAVCIS,ioos:station:WAVCIS:CSI15:1,2011-09-09T00:00:00Z,28.8332,-90.8320,10.0,1.839,359.0,,'11111222,11111222,99999999' 
WAVCIS,ioos:station:WAVCIS:CSI15:1,2011-09-09T01:00:00Z,28.8332,-90.8320,10.0,2.101,315.0,,'11111222,11111222,99999999' 
WAVCIS,ioos:station:WAVCIS:CSI15:1,2011-09-09T02:00:00Z,28.8332,-90.8320,10.0,2.286,313.0,,'11111222,11111222,99999999' 
WAVCIS,ioos:station:WAVCIS:CSI15:1,2011-09-09T03:00:00Z,28.8332,-90.8320,10.0,1.135,312.0,,'11111222,11111222,99999999' 
WAVCIS,ioos:station:WAVCIS:CSI15:1,2011-09-09T04:00:00Z,28.8332,-90.8320,10.0,1.981,333.0,,'11111222,11111222,99999999' 
WAVCIS,ioos:station:WAVCIS:CSI15:1,2011-09-09T05:00:00Z,28.8332,-90.8320,10.0,1.402,338.0,,'11111222,11111222,99999999' 